DW6536 Weather Reports


Display with metric or nautical units.
time (UTC)temp
F
wind
direction
speed
MPH
gust
MPH
rain 1hr
in
rain 24hr
in
rain mn
in
humidity
%
barometer
mb
20240529061521 68 173 3.0 0.0 0.00 0.00 0.03 91 1010.6
20240529060020 69 158 6.0 0.0 0.00 0.00 0.03 92 1008.3
20240529054516 68 127 5.0 0.0 0.00 0.00 0.03 94 1009.6
20240529053012 67 85 4.0 0.0 0.00 0.00 0.03 93 1011.2
20240529051509 67 115 4.0 0.0 0.00 0.00 0.03 91 1012.7
20240529050005 68 33 2.0 0.0 0.00 0.00 0.00 88 1016.0
20240529044626 71 187 2.0 0.0 0.00 0.00 0.70 88 1017.3
20240529043057 75 284 2.0 0.0 0.00 0.00 0.03 83 1017.9
20240529041604 76 311 1.0 0.0 0.00 0.00 0.00 79 1016.5
20240529040055 77 347 0.0 0.0 0.00 0.00 0.00 77 1015.7
20240529035018 78 347 0.0 0.0 0.00 0.00 0.00 74 1015.1
20240529031205 79 111 0.0 0.0 0.00 0.00 0.00 69 1014.7
20240529015534 79 135 0.0 0.0 0.00 0.00 0.00 65 1013.2
20240529011450 81 131 1.0 0.0 0.00 0.00 0.00 62 1012.6
20240529002914 82 128 1.0 0.0 0.00 0.00 0.00 57 1011.6
20240528234649 84 149 1.0 0.0 0.00 0.00 0.00 55 1011.8
20240528234124 84 326 2.0 0.0 0.00 0.00 0.00 55 1012.1
20240528225950 85 76 2.0 0.0 0.00 0.00 0.00 54 1011.8
20240528223048 85 136 3.0 0.0 0.00 0.00 0.00 51 1011.4
20240528221545 86 305 2.0 0.0 0.00 0.00 0.00 54 1011.8
20240528220044 86 70 2.0 0.0 0.00 0.00 0.00 53 1012.5
20240528214553 86 126 2.0 0.0 0.00 0.00 0.00 55 1012.9
20240528213042 86 57 2.0 0.0 0.00 0.00 0.00 54 1013.1
20240528211541 86 85 2.0 0.0 0.00 0.00 0.00 53 1013.5
20240528210039 85 72 2.0 0.0 0.00 0.00 0.00 52 1013.8
20240528204539 85 127 3.0 0.0 0.00 0.00 0.00 54 1013.8
20240528203036 85 84 2.0 0.0 0.00 0.00 0.00 57 1014.1
20240528201535 84 183 3.0 0.0 0.00 0.00 0.00 57 1014.4
20240528200035 84 58 2.0 0.0 0.00 0.00 0.00 56 1014.3
20240528194534 84 62 3.0 0.0 0.00 0.00 0.00 57 1014.5
20240528193037 84 78 3.0 0.0 0.00 0.00 0.00 56 1014.7
20240528191542 84 93 3.0 0.0 0.00 0.00 0.00 56 1014.9
20240528190031 83 122 2.0 0.0 0.00 0.00 0.00 59 1015.1
20240528184533 83 12 3.0 0.0 0.00 0.00 0.00 59 1015.3
20240528183030 82 157 3.0 0.0 0.00 0.00 0.00 59 1015.7
20240528181531 81 60 3.0 0.0 0.00 0.00 0.00 60 1016.0
20240528180034 81 81 3.0 0.0 0.00 0.00 0.00 63 1016.5
20240528174527 80 123 3.0 0.0 0.00 0.00 0.00 64 1016.9
20240528173026 77 56 3.0 0.0 0.00 0.00 0.00 66 1017.3
20240528171527 75 58 4.0 0.0 0.00 0.00 0.00 70 1017.9
20240528170037 74 26 5.0 0.0 0.00 0.00 0.00 70 1018.3
20240528164522 74 41 8.0 0.0 0.00 0.00 0.00 72 1018.1
20240528163032 74 303 5.0 0.0 0.00 0.00 0.00 72 1017.8
20240528161521 74 20 7.0 0.0 0.00 0.00 0.00 73 1018.0
20240528160020 76 55 6.0 0.0 0.00 0.00 0.00 70 1018.2
20240528154515 84 92 2.0 0.0 0.00 0.00 0.00 81 1016.8
20240528153012 83 65 2.0 0.0 0.00 0.00 0.00 81 1016.5
20240528151508 84 71 2.0 0.0 0.00 0.00 0.00 80 1015.9
20240528150006 83 33 1.0 0.0 0.00 0.00 0.00 80 1015.2
20240528144609 83 122 2.0 0.0 0.00 0.00 0.00 82 1014.2
20240528143058 82 133 1.0 0.0 0.00 0.00 0.00 83 1013.4
20240528141559 82 122 1.0 0.0 0.00 0.00 0.00 84 1012.8
20240528140053 81 136 1.0 0.0 0.00 0.00 0.00 85 1012.3
20240528134612 80 121 1.0 0.0 0.00 0.00 0.00 87 1011.9
20240528133055 80 128 1.0 0.0 0.00 0.00 0.00 87 1011.3
20240528131551 79 235 1.0 0.0 0.00 0.00 0.00 89 1010.9
20240528130053 79 136 1.0 0.0 0.00 0.00 0.00 90 1010.6
20240528124600 78 201 0.0 0.0 0.00 0.00 0.00 91 1010.1
20240528123050 78 229 1.0 0.0 0.00 0.00 0.00 92 1010.2
20240528121548 77 137 1.0 0.0 0.00 0.00 0.00 93 1010.3
20240528120049 77 158 1.0 0.0 0.00 0.00 0.00 93 1010.3
20240528114547 76 128 0.0 0.0 0.00 0.00 0.00 92 1010.4
20240528113049 77 141 0.0 0.0 0.00 0.00 0.00 92 1010.5
20240528111551 77 102 0.0 0.0 0.00 0.00 0.00 91 1010.2
20240528110047 77 123 0.0 0.0 0.00 0.00 0.00 91 1010.5
20240528104540 78 135 0.0 0.0 0.00 0.00 0.00 90 1010.6
20240528103038 78 103 0.0 0.0 0.00 0.00 0.00 90 1010.8
20240528101536 78 201 0.0 0.0 0.00 0.00 0.00 89 1010.9
20240528100036 79 201 1.0 0.0 0.00 0.00 0.00 88 1010.7
20240528094533 79 142 1.0 0.0 0.00 0.00 0.00 88 1011.0
20240528093030 79 197 2.0 0.0 0.00 0.00 0.00 88 1011.3
20240528091530 79 223 1.0 0.0 0.00 0.00 0.00 88 1011.4
20240528090029 79 100 1.0 0.0 0.00 0.00 0.00 87 1011.3
20240528084527 80 166 1.0 0.0 0.00 0.00 0.00 87 1011.4
20240528083026 80 172 2.0 0.0 0.00 0.00 0.00 86 1011.4
20240528081523 80 121 3.0 0.0 0.00 0.00 0.00 85 1011.7
20240528080025 80 199 2.0 0.0 0.00 0.00 0.00 84 1011.9
20240528074519 81 113 3.0 0.0 0.00 0.00 0.00 84 1012.0
20240528073017 81 185 3.0 0.0 0.00 0.00 0.00 85 1012.3
20240528071517 82 205 2.0 0.0 0.00 0.00 0.00 85 1012.5
20240528070017 82 245 2.0 0.0 0.00 0.00 0.00 85 1012.6
20240528064513 82 228 2.0 0.0 0.00 0.00 0.00 85 1012.6
20240528063012 83 42 2.0 0.0 0.00 0.00 0.00 85 1012.5